This is the latest recevied weather packets stored in our database for station/object W0WFX-2. If no packets are shown the sender has not sent any weather packets the latest 10 day(s).
| Time | Temp. | Humidity | Pressure | Rain* | Wind** | Luminosity | Snow |
|---|---|---|---|---|---|---|---|
| 1788292634 | 38.33° C | 28% | 1014.4 hPa | 0 mm | - | 110 W/m² | - |
| 1788292328 | 38.33° C | 30% | 1014.6 hPa | 0 mm | - | 107 W/m² | - |
| 1788292024 | 38.33° C | 28% | 1014.5 hPa | 0 mm | - | 662 W/m² | - |
| 1788291718 | 38.89° C | 29% | 1014.7 hPa | 0 mm | - | 672 W/m² | - |
| 1788291415 | 38.89° C | 29% | 1014.8 hPa | 0 mm | - | 670 W/m² | - |
| 1788291109 | 38.89° C | 28% | 1014.7 hPa | 0 mm | - | 676 W/m² | - |
| 1788290809 | 38.89° C | 28% | 1014.9 hPa | 0 mm | - | 682 W/m² | - |
| 1788290504 | 38.33° C | 28% | 1014.9 hPa | 0 mm | - | 686 W/m² | - |
| 1788290200 | 38.33° C | 29% | 1014.9 hPa | 0 mm | - | 696 W/m² | - |
| 1788289896 | 38.33° C | 28% | 1015 hPa | 0 mm | - | 696 W/m² | - |
| 1788289592 | 38.89° C | 27% | 1014.9 hPa | 0 mm | - | 707 W/m² | - |
| 1788289291 | 38.33° C | 28% | 1014.9 hPa | 0 mm | - | 705 W/m² | - |
| 1788288989 | 38.33° C | 27% | 1014.9 hPa | 0 mm | - | 710 W/m² | - |
| 1788288688 | 38.33° C | 29% | 1015.1 hPa | 0 mm | - | 718 W/m² | - |
| 1788288384 | 38.89° C | 28% | 1015.3 hPa | 0 mm | - | 718 W/m² | - |
| 1788288079 | 38.33° C | 28% | 1015.1 hPa | 0 mm | - | 710 W/m² | - |
| 1788287774 | 38.33° C | 28% | 1015.3 hPa | 0 mm | - | 718 W/m² | - |
| 1788287469 | 38.33° C | 29% | 1015 hPa | 0 mm | - | 716 W/m² | - |
| 1788287166 | 37.78° C | 31% | 1015.5 hPa | 0 mm | - | 720 W/m² | - |
| 1788286864 | 38.33° C | 30% | 1015.5 hPa | 0 mm | - | 721 W/m² | - |
| 1788286559 | 38.33° C | 30% | 1015.7 hPa | 0 mm | - | 721 W/m² | - |
| 1788286258 | 38.33° C | 29% | 1015.5 hPa | 0 mm | - | 726 W/m² | - |
| 1788285957 | 38.33° C | 30% | 1015.7 hPa | 0 mm | - | 725 W/m² | - |
| 1788285653 | 38.33° C | 32% | 1015.8 hPa | 0 mm | - | 725 W/m² | - |
| 1788285352 | 38.33° C | 30% | 1015.8 hPa | 0 mm | - | 722 W/m² | - |
* Rain latest hour (hover to see other rain measurements)
** Current wind speed in m/s (hover to see current wind gust speed)